User: anonymous   Login
Location: Iesi
(43.5167°N, 13.2333°E)
Time: 08:40:41
(UTC+00:00)
Language:

Cosmos 1954 Rocket - Orbit

View from above orbital plane
View from above orbital plane
View from above satellite
View from above satellite

Ground track
Ground track

The orbit data is extracted from the following two-line orbital elements,

1 19257U 88053B   20293.66056859 +.00000110 +00000-0 +45230-4 0  9999
2 19257 074.0470 132.6035 0019447 080.5077 317.2865 14.37486181694138
Epoch (UTC): 19 October 2020 15:51:13
Eccentricity: 0.0019447
inclination: 74.0470°
perigee height: 753 km
apogee height: 781 km
right ascension of ascending node: 132.6035°
argument of perigee: 80.5077°
revolutions per day: 14.37486181
mean anomaly at epoch: 317.2865°
orbit number at epoch: 69413

The dashed part of the orbit path shows where the satellite is in the earth's shadow,  

DLR